Time,TemperatureF,DewpointF,PressureIn,WindDirection,WindDirectionDegrees,WindSpeedMPH,WindSpeedGustMPH,Humidity,HourlyPrecipIn,Conditions,Clouds,dailyrainin,SoftwareType,DateUTC
2013-08-17 00:01:00,65.0,62.3,30.09,ENE,72,0.0,0.0,91,0.00,,,0.00,Wunderground v.1.15,2013-08-17 04:01:00,
2013-08-17 00:02:00,65.0,62.3,30.09,ENE,72,0.0,0.0,91,0.00,,,0.00,Wunderground v.1.15,2013-08-17 04:02:00,
2013-08-17 00:04:00,65.0,62.3,30.09,ENE,72,0.0,0.0,91,0.00,,,0.00,Wunderground v.1.15,2013-08-17 04:04:00,
2013-08-17 00:05:00,65.0,62.3,30.09,ENE,72,0.0,0.0,91,0.00,,,0.00,Wunderground v.1.15,2013-08-17 04:05:00,
2013-08-17 00:09:00,65.0,62.0,30.09,ENE,72,0.0,0.0,90,0.00,,,0.00,Wunderground v.1.15,2013-08-17 04:09:00,
2013-08-17 00:14:00,64.8,62.1,30.09,ENE,72,0.0,0.0,91,0.00,,,0.00,Wunderground v.1.15,2013-08-17 04:14:00,
2013-08-17 00:19:00,64.8,62.1,30.09,ENE,72,0.0,0.0,91,0.00,,,0.00,Wunderground v.1.15,2013-08-17 04:19:00,
2013-08-17 00:25:00,64.8,61.8,30.09,ENE,72,0.0,2.0,90,0.00,,,0.00,Wunderground v.1.15,2013-08-17 04:25:00,
2013-08-17 00:30:00,64.8,61.8,30.09,ENE,72,0.0,0.0,90,0.00,,,0.00,Wunderground v.1.15,2013-08-17 04:30:00,
2013-08-17 00:36:00,64.8,61.8,30.09,ENE,72,0.0,0.0,90,0.00,,,0.00,Wunderground v.1.15,2013-08-17 04:36:00,
2013-08-17 00:41:00,64.8,61.8,30.09,East,85,0.0,0.0,90,0.00,,,0.00,Wunderground v.1.15,2013-08-17 04:41:00,
2013-08-17 00:47:00,64.8,61.8,30.09,East,85,0.0,0.0,90,0.00,,,0.00,Wunderground v.1.15,2013-08-17 04:47:00,
2013-08-17 00:52:00,64.8,61.8,30.07,East,85,0.0,0.0,90,0.00,,,0.00,Wunderground v.1.15,2013-08-17 04:52:00,
2013-08-17 00:58:00,64.7,61.7,30.07,East,85,0.0,1.0,90,0.00,,,0.00,Wunderground v.1.15,2013-08-17 04:58:00,
2013-08-17 01:03:00,64.7,61.7,30.07,East,85,0.0,0.0,90,0.00,,,0.00,Wunderground v.1.15,2013-08-17 05:03:00,
2013-08-17 01:09:00,64.7,61.7,30.08,East,85,0.0,0.0,90,0.00,,,0.00,Wunderground v.1.15,2013-08-17 05:09:00,
2013-08-17 01:14:00,64.7,61.7,30.08,East,85,0.0,0.0,90,0.00,,,0.00,Wunderground v.1.15,2013-08-17 05:14:00,
2013-08-17 01:20:00,64.7,61.7,30.08,East,85,0.0,0.0,90,0.00,,,0.00,Wunderground v.1.15,2013-08-17 05:20:00,
2013-08-17 01:25:00,64.7,61.7,30.08,East,85,0.0,0.0,90,0.00,,,0.00,Wunderground v.1.15,2013-08-17 05:25:00,
2013-08-17 01:31:00,64.7,61.7,30.08,East,85,0.0,0.0,90,0.00,,,0.00,Wunderground v.1.15,2013-08-17 05:31:00,
2013-08-17 01:36:00,64.7,61.7,30.08,East,85,0.0,0.0,90,0.00,,,0.00,Wunderground v.1.15,2013-08-17 05:36:00,
2013-08-17 01:41:00,64.7,61.7,30.08,East,85,0.0,0.0,90,0.00,,,0.00,Wunderground v.1.15,2013-08-17 05:41:00,
2013-08-17 01:47:00,64.5,61.2,30.08,East,85,0.0,0.0,89,0.00,,,0.00,Wunderground v.1.15,2013-08-17 05:47:00,
2013-08-17 01:53:00,64.7,61.7,30.08,East,85,0.0,0.0,90,0.00,,,0.00,Wunderground v.1.15,2013-08-17 05:53:00,
2013-08-17 01:59:00,64.7,61.7,30.08,East,85,0.0,0.0,90,0.00,,,0.00,Wunderground v.1.15,2013-08-17 05:59:00,
2013-08-17 02:05:00,64.7,61.4,30.08,East,85,0.0,0.0,89,0.00,,,0.00,Wunderground v.1.15,2013-08-17 06:05:00,
2013-08-17 02:10:00,64.5,60.9,30.08,East,85,0.0,0.0,88,0.00,,,0.00,Wunderground v.1.15,2013-08-17 06:10:00,
2013-08-17 02:15:00,64.5,60.9,30.08,East,85,0.0,0.0,88,0.00,,,0.00,Wunderground v.1.15,2013-08-17 06:15:00,
2013-08-17 02:21:00,64.5,60.9,30.08,East,85,0.0,0.0,88,0.00,,,0.00,Wunderground v.1.15,2013-08-17 06:21:00,
2013-08-17 02:26:00,64.5,60.9,30.08,East,85,0.0,0.0,88,0.00,,,0.00,Wunderground v.1.15,2013-08-17 06:26:00,
2013-08-17 02:32:00,64.5,61.2,30.08,East,85,0.0,0.0,89,0.00,,,0.00,Wunderground v.1.15,2013-08-17 06:32:00,
2013-08-17 02:38:00,64.5,60.9,30.06,East,85,0.0,0.0,88,0.00,,,0.00,Wunderground v.1.15,2013-08-17 06:38:00,
2013-08-17 02:44:00,64.5,61.5,30.06,East,85,0.0,0.0,90,0.00,,,0.00,Wunderground v.1.15,2013-08-17 06:44:00,
2013-08-17 02:50:00,64.5,61.2,30.07,East,85,0.0,0.0,89,0.00,,,0.00,Wunderground v.1.15,2013-08-17 06:50:00,
2013-08-17 02:55:00,64.5,61.2,30.07,East,85,0.0,0.0,89,0.00,,,0.00,Wunderground v.1.15,2013-08-17 06:55:00,
2013-08-17 03:00:00,64.5,61.2,30.07,East,85,0.0,0.0,89,0.00,,,0.00,Wunderground v.1.15,2013-08-17 07:00:00,
2013-08-17 03:06:00,64.5,61.2,30.07,East,85,0.0,0.0,89,0.00,,,0.00,Wunderground v.1.15,2013-08-17 07:06:00,
2013-08-17 03:11:00,64.5,61.2,30.07,East,85,0.0,0.0,89,0.00,,,0.00,Wunderground v.1.15,2013-08-17 07:11:00,
2013-08-17 03:17:00,64.5,61.2,30.07,East,85,0.0,0.0,89,0.00,,,0.00,Wunderground v.1.15,2013-08-17 07:17:00,
2013-08-17 03:22:00,64.5,61.2,30.07,East,85,0.0,0.0,89,0.00,,,0.00,Wunderground v.1.15,2013-08-17 07:22:00,
2013-08-17 03:28:00,64.3,61.0,30.07,East,85,0.0,0.0,89,0.00,,,0.00,Wunderground v.1.15,2013-08-17 07:28:00,
2013-08-17 03:33:00,64.3,61.0,30.07,East,85,0.0,0.0,89,0.00,,,0.00,Wunderground v.1.15,2013-08-17 07:33:00,
2013-08-17 03:39:00,64.3,61.0,30.07,East,85,0.0,0.0,89,0.00,,,0.00,Wunderground v.1.15,2013-08-17 07:39:00,
2013-08-17 03:44:00,64.3,61.0,30.07,East,85,0.0,1.0,89,0.00,,,0.00,Wunderground v.1.15,2013-08-17 07:44:00,
2013-08-17 03:50:00,64.2,61.2,30.07,East,85,0.0,0.0,90,0.00,,,0.00,Wunderground v.1.15,2013-08-17 07:50:00,
2013-08-17 03:55:00,64.2,61.5,30.07,East,85,0.0,0.0,91,0.00,,,0.00,Wunderground v.1.15,2013-08-17 07:55:00,
2013-08-17 04:01:00,64.2,61.2,30.07,East,85,0.0,0.0,90,0.00,,,0.00,Wunderground v.1.15,2013-08-17 08:01:00,
2013-08-17 04:06:00,64.2,61.2,30.07,East,85,0.0,0.0,90,0.00,,,0.00,Wunderground v.1.15,2013-08-17 08:06:00,
2013-08-17 04:12:00,64.2,61.2,30.07,East,85,0.0,0.0,90,0.00,,,0.00,Wunderground v.1.15,2013-08-17 08:12:00,
2013-08-17 04:17:00,64.2,61.2,30.07,East,85,0.0,0.0,90,0.00,,,0.00,Wunderground v.1.15,2013-08-17 08:17:00,
2013-08-17 04:23:00,64.2,61.2,30.07,East,85,0.0,0.0,90,0.00,,,0.00,Wunderground v.1.15,2013-08-17 08:23:00,
2013-08-17 04:28:00,64.2,61.2,30.07,East,85,0.0,0.0,90,0.00,,,0.00,Wunderground v.1.15,2013-08-17 08:28:00,
2013-08-17 04:34:00,64.2,61.2,30.07,East,85,0.0,0.0,90,0.00,,,0.00,Wunderground v.1.15,2013-08-17 08:34:00,
2013-08-17 04:40:00,64.2,61.2,30.07,East,85,0.0,0.0,90,0.00,,,0.00,Wunderground v.1.15,2013-08-17 08:40:00,
2013-08-17 04:45:00,64.2,61.2,30.07,East,85,0.0,0.0,90,0.00,,,0.00,Wunderground v.1.15,2013-08-17 08:45:00,
2013-08-17 04:51:00,64.0,60.7,30.06,East,85,0.0,0.0,89,0.00,,,0.00,Wunderground v.1.15,2013-08-17 08:51:00,
2013-08-17 04:56:00,64.0,60.7,30.06,East,85,0.0,0.0,89,0.00,,,0.00,Wunderground v.1.15,2013-08-17 08:56:00,
2013-08-17 05:02:00,63.9,60.9,30.06,East,85,0.0,0.0,90,0.00,,,0.00,Wunderground v.1.15,2013-08-17 09:02:00,
2013-08-17 05:07:00,63.7,61.0,30.07,East,85,0.0,0.0,91,0.00,,,0.00,Wunderground v.1.15,2013-08-17 09:07:00,
2013-08-17 05:13:00,63.7,61.0,30.07,East,85,0.0,0.0,91,0.00,,,0.00,Wunderground v.1.15,2013-08-17 09:13:00,
2013-08-17 05:18:00,63.7,61.0,30.07,East,85,0.0,0.0,91,0.00,,,0.00,Wunderground v.1.15,2013-08-17 09:18:00,
2013-08-17 05:24:00,63.7,60.7,30.06,East,85,0.0,0.0,90,0.00,,,0.00,Wunderground v.1.15,2013-08-17 09:24:00,
2013-08-17 05:29:00,63.9,61.2,30.06,East,85,0.0,0.0,91,0.00,,,0.00,Wunderground v.1.15,2013-08-17 09:29:00,
2013-08-17 05:35:00,63.9,61.2,30.06,East,85,0.0,0.0,91,0.00,,,0.00,Wunderground v.1.15,2013-08-17 09:35:00,
2013-08-17 05:40:00,63.7,61.0,30.06,East,85,0.0,0.0,91,0.00,,,0.00,Wunderground v.1.15,2013-08-17 09:40:00,
2013-08-17 05:46:00,63.7,61.0,30.06,East,85,0.0,0.0,91,0.00,,,0.00,Wunderground v.1.15,2013-08-17 09:46:00,
2013-08-17 05:51:00,63.7,61.0,30.06,East,85,0.0,0.0,91,0.00,,,0.00,Wunderground v.1.15,2013-08-17 09:51:00,
2013-08-17 05:57:00,63.9,61.2,30.06,East,85,0.0,0.0,91,0.00,,,0.00,Wunderground v.1.15,2013-08-17 09:57:00,
2013-08-17 06:02:00,63.9,61.2,30.06,East,85,0.0,0.0,91,0.00,,,0.00,Wunderground v.1.15,2013-08-17 10:02:00,
2013-08-17 06:07:00,63.9,61.2,30.07,East,85,0.0,0.0,91,0.00,,,0.00,Wunderground v.1.15,2013-08-17 10:07:00,
2013-08-17 06:13:00,63.9,61.2,30.07,East,85,0.0,0.0,91,0.00,,,0.00,Wunderground v.1.15,2013-08-17 10:13:00,
2013-08-17 06:18:00,63.9,61.2,30.07,East,85,0.0,0.0,91,0.00,,,0.00,Wunderground v.1.15,2013-08-17 10:18:00,
2013-08-17 06:24:00,63.9,61.2,30.06,East,85,0.0,0.0,91,0.00,,,0.00,Wunderground v.1.15,2013-08-17 10:24:00,
2013-08-17 06:30:00,63.9,61.5,30.06,East,85,0.0,0.0,92,0.00,,,0.00,Wunderground v.1.15,2013-08-17 10:30:00,
2013-08-17 06:36:00,63.7,61.3,30.06,East,85,0.0,0.0,92,0.00,,,0.00,Wunderground v.1.15,2013-08-17 10:36:00,
2013-08-17 06:41:00,63.7,61.3,30.06,East,85,0.0,0.0,92,0.00,,,0.00,Wunderground v.1.15,2013-08-17 10:41:00,
2013-08-17 06:47:00,63.5,61.1,30.06,East,85,0.0,0.0,92,0.00,,,0.00,Wunderground v.1.15,2013-08-17 10:47:00,
2013-08-17 06:52:00,63.5,61.1,30.07,East,83,0.0,0.0,92,0.00,,,0.00,Wunderground v.1.15,2013-08-17 10:52:00,
2013-08-17 06:57:00,63.5,61.1,30.07,North,352,0.0,0.0,92,0.00,,,0.00,Wunderground v.1.15,2013-08-17 10:57:00,
2013-08-17 07:03:00,63.7,61.3,30.07,North,353,0.0,0.0,92,0.00,,,0.00,Wunderground v.1.15,2013-08-17 11:03:00,
2013-08-17 07:08:00,63.7,61.3,30.09,North,353,0.0,0.0,92,0.00,,,0.00,Wunderground v.1.15,2013-08-17 11:08:00,
2013-08-17 07:14:00,63.7,61.6,30.09,North,353,0.0,0.0,93,0.00,,,0.00,Wunderground v.1.15,2013-08-17 11:14:00,
2013-08-17 07:19:00,63.9,61.8,30.08,North,358,0.0,0.0,93,0.00,,,0.00,Wunderground v.1.15,2013-08-17 11:19:00,
2013-08-17 07:25:00,64.0,61.9,30.08,NNW,343,0.0,0.0,93,0.00,,,0.00,Wunderground v.1.15,2013-08-17 11:25:00,
2013-08-17 07:31:00,64.0,62.2,30.08,NNW,343,0.0,0.0,94,0.00,,,0.00,Wunderground v.1.15,2013-08-17 11:31:00,
2013-08-17 07:36:00,64.0,62.2,30.09,NNW,343,0.0,0.0,94,0.00,,,0.00,Wunderground v.1.15,2013-08-17 11:36:00,
2013-08-17 07:41:00,64.0,62.2,30.09,NNW,343,0.0,0.0,94,0.00,,,0.00,Wunderground v.1.15,2013-08-17 11:41:00,
2013-08-17 07:47:00,64.0,62.5,30.09,NNW,344,0.0,1.0,95,0.00,,,0.00,Wunderground v.1.15,2013-08-17 11:47:00,
2013-08-17 07:52:00,63.9,62.4,30.09,NNW,344,0.0,0.0,95,0.00,,,0.00,Wunderground v.1.15,2013-08-17 11:52:00,
2013-08-17 07:58:00,63.9,62.4,30.09,NNW,344,0.0,0.0,95,0.00,,,0.00,Wunderground v.1.15,2013-08-17 11:58:00,
2013-08-17 08:03:00,64.0,62.5,30.09,NNW,344,0.0,0.0,95,0.00,,,0.00,Wunderground v.1.15,2013-08-17 12:03:00,
2013-08-17 08:06:00,64.0,62.5,30.09,NNW,344,0.0,0.0,95,0.00,,,0.00,Wunderground v.1.15,2013-08-17 12:06:00,
2013-08-17 08:11:00,64.0,62.5,30.09,NNW,345,0.0,0.0,95,0.00,,,0.00,Wunderground v.1.15,2013-08-17 12:11:00,
2013-08-17 08:17:00,64.0,62.5,30.09,NNW,345,0.0,0.0,95,0.00,,,0.00,Wunderground v.1.15,2013-08-17 12:17:00,
2013-08-17 08:23:00,64.0,62.5,30.09,NNW,345,0.0,1.0,95,0.00,,,0.00,Wunderground v.1.15,2013-08-17 12:23:00,
2013-08-17 08:28:00,64.2,62.7,30.09,NE,37,0.0,1.0,95,0.00,,,0.00,Wunderground v.1.15,2013-08-17 12:28:00,
2013-08-17 08:34:00,64.2,62.4,30.09,ENE,77,0.0,0.0,94,0.00,,,0.00,Wunderground v.1.15,2013-08-17 12:34:00,
2013-08-17 08:39:00,64.2,62.4,30.10,NNE,30,0.0,0.0,94,0.00,,,0.00,Wunderground v.1.15,2013-08-17 12:39:00,
2013-08-17 08:44:00,64.3,62.5,30.10,North,6,0.0,0.0,94,0.00,,,0.00,Wunderground v.1.15,2013-08-17 12:44:00,
2013-08-17 08:50:00,64.3,62.5,30.10,North,6,0.0,0.0,94,0.00,,,0.00,Wunderground v.1.15,2013-08-17 12:50:00,
2013-08-17 08:56:00,64.3,62.2,30.10,NNW,335,0.0,0.0,93,0.00,,,0.00,Wunderground v.1.15,2013-08-17 12:56:00,
2013-08-17 09:01:00,64.3,61.9,30.10,NNW,335,0.0,0.0,92,0.00,,,0.00,Wunderground v.1.15,2013-08-17 13:01:00,
2013-08-17 09:06:00,64.5,62.1,30.11,NNW,335,0.0,0.0,92,0.00,,,0.00,Wunderground v.1.15,2013-08-17 13:06:00,
2013-08-17 09:12:00,64.5,62.1,30.11,NNW,335,0.0,0.0,92,0.00,,,0.00,Wunderground v.1.15,2013-08-17 13:12:00,
2013-08-17 09:17:00,64.7,62.0,30.11,NNW,335,0.0,0.0,91,0.00,,,0.00,Wunderground v.1.15,2013-08-17 13:17:00,
2013-08-17 09:23:00,64.7,62.0,30.11,NNW,335,0.0,0.0,91,0.00,,,0.00,Wunderground v.1.15,2013-08-17 13:23:00,
2013-08-17 09:28:00,64.7,61.7,30.11,NNW,335,0.0,0.0,90,0.00,,,0.00,Wunderground v.1.15,2013-08-17 13:28:00,
2013-08-17 09:34:00,64.8,62.1,30.11,NNW,335,0.0,0.0,91,0.00,,,0.00,Wunderground v.1.15,2013-08-17 13:34:00,
2013-08-17 09:39:00,64.8,62.1,30.11,NNW,335,0.0,0.0,91,0.00,,,0.00,Wunderground v.1.15,2013-08-17 13:39:00,
2013-08-17 09:45:00,65.0,62.3,30.11,NNW,335,0.0,0.0,91,0.00,,,0.00,Wunderground v.1.15,2013-08-17 13:45:00,
2013-08-17 09:50:00,65.0,62.0,30.11,NNW,335,0.0,0.0,90,0.00,,,0.00,Wunderground v.1.15,2013-08-17 13:50:00,
2013-08-17 09:56:00,65.0,61.7,30.11,NNW,335,0.0,0.0,89,0.00,,,0.00,Wunderground v.1.15,2013-08-17 13:56:00,
2013-08-17 10:01:00,65.2,61.9,30.11,NNW,335,0.0,0.0,89,0.00,,,0.00,Wunderground v.1.15,2013-08-17 14:01:00,
2013-08-17 10:07:00,65.2,61.6,30.12,NNW,335,0.0,0.0,88,0.00,,,0.00,Wunderground v.1.15,2013-08-17 14:07:00,
2013-08-17 10:13:00,65.2,61.6,30.12,NNW,335,0.0,0.0,88,0.00,,,0.00,Wunderground v.1.15,2013-08-17 14:13:00,
2013-08-17 10:18:00,65.3,61.7,30.12,NNW,335,0.0,0.0,88,0.00,,,0.00,Wunderground v.1.15,2013-08-17 14:18:00,
2013-08-17 10:24:00,65.3,61.7,30.12,NNW,335,0.0,0.0,88,0.00,,,0.00,Wunderground v.1.15,2013-08-17 14:24:00,
2013-08-17 10:29:00,65.3,61.0,30.12,NNW,335,0.0,0.0,86,0.00,,,0.00,Wunderground v.1.15,2013-08-17 14:29:00,
2013-08-17 10:35:00,65.5,60.9,30.12,NNW,335,0.0,0.0,85,0.00,,,0.00,Wunderground v.1.15,2013-08-17 14:35:00,
2013-08-17 10:41:00,65.5,60.9,30.12,NNW,335,0.0,0.0,85,0.00,,,0.00,Wunderground v.1.15,2013-08-17 14:41:00,
2013-08-17 10:46:00,65.6,61.0,30.12,NNW,335,0.0,0.0,85,0.00,,,0.00,Wunderground v.1.15,2013-08-17 14:46:00,
2013-08-17 10:52:00,66.0,60.7,30.12,North,356,0.0,3.0,83,0.00,,,0.00,Wunderground v.1.15,2013-08-17 14:52:00,
2013-08-17 10:57:00,66.3,60.6,30.12,NNE,27,2.0,4.0,82,0.00,,,0.00,Wunderground v.1.15,2013-08-17 14:57:00,
2013-08-17 11:03:00,66.4,60.4,30.12,NNE,27,1.0,2.0,81,0.00,,,0.00,Wunderground v.1.15,2013-08-17 15:03:00,
2013-08-17 11:08:00,66.4,59.7,30.13,ENE,63,1.0,5.0,79,0.00,,,0.00,Wunderground v.1.15,2013-08-17 15:08:00,
2013-08-17 11:14:00,66.4,60.0,30.13,ENE,63,3.0,4.0,80,0.00,,,0.00,Wunderground v.1.15,2013-08-17 15:14:00,
2013-08-17 11:19:00,66.4,60.4,30.13,ENE,63,2.0,4.0,81,0.00,,,0.00,Wunderground v.1.15,2013-08-17 15:19:00,
2013-08-17 11:24:00,66.6,60.9,30.12,ENE,63,1.0,3.0,82,0.00,,,0.00,Wunderground v.1.15,2013-08-17 15:24:00,
2013-08-17 11:30:00,66.8,61.5,30.12,ENE,63,0.0,1.0,83,0.00,,,0.00,Wunderground v.1.15,2013-08-17 15:30:00,
2013-08-17 11:35:00,66.8,61.8,30.12,ENE,63,1.0,2.0,84,0.00,,,0.00,Wunderground v.1.15,2013-08-17 15:35:00,
2013-08-17 11:41:00,66.6,61.6,30.12,ENE,63,1.0,3.0,84,0.00,,,0.00,Wunderground v.1.15,2013-08-17 15:41:00,
2013-08-17 11:46:00,66.6,62.3,30.12,ENE,63,1.0,3.0,86,0.00,,,0.00,Wunderground v.1.15,2013-08-17 15:46:00,
2013-08-17 11:52:00,66.6,62.3,30.12,ENE,60,2.0,4.0,86,0.00,,,0.00,Wunderground v.1.15,2013-08-17 15:52:00,
2013-08-17 11:57:00,66.6,61.9,30.12,ENE,60,3.0,4.0,85,0.00,,,0.00,Wunderground v.1.15,2013-08-17 15:57:00,
2013-08-17 12:03:00,66.8,61.8,30.12,ENE,60,3.0,4.0,84,0.00,,,0.00,Wunderground v.1.15,2013-08-17 16:03:00,
2013-08-17 12:08:00,66.8,61.5,30.11,NE,49,3.0,6.0,83,0.00,,,0.00,Wunderground v.1.15,2013-08-17 16:08:00,
2013-08-17 12:13:00,66.6,60.9,30.11,ENE,58,4.0,5.0,82,0.00,,,0.00,Wunderground v.1.15,2013-08-17 16:13:00,
2013-08-17 12:19:00,66.6,61.6,30.11,ENE,57,3.0,5.0,84,0.00,,,0.00,Wunderground v.1.15,2013-08-17 16:19:00,
2013-08-17 12:24:00,66.6,61.3,30.12,ENE,57,3.0,4.0,83,0.00,,,0.00,Wunderground v.1.15,2013-08-17 16:24:00,
2013-08-17 12:30:00,66.9,62.2,30.12,NE,56,2.0,6.0,85,0.00,,,0.00,Wunderground v.1.15,2013-08-17 16:30:00,
2013-08-17 12:35:00,67.3,62.3,30.11,NE,56,3.0,6.0,84,0.00,,,0.00,Wunderground v.1.15,2013-08-17 16:35:00,
2013-08-17 12:41:00,67.8,62.1,30.11,ENE,60,3.0,5.0,82,0.00,,,0.00,Wunderground v.1.15,2013-08-17 16:41:00,
2013-08-17 12:46:00,67.6,61.9,30.11,ENE,62,3.0,6.0,82,0.00,,,0.00,Wunderground v.1.15,2013-08-17 16:46:00,
2013-08-17 12:52:00,67.9,62.2,30.10,ENE,63,4.0,5.0,82,0.00,,,0.00,Wunderground v.1.15,2013-08-17 16:52:00,
2013-08-17 12:57:00,68.1,62.4,30.10,ENE,63,3.0,5.0,82,0.00,,,0.00,Wunderground v.1.15,2013-08-17 16:57:00,
2013-08-17 13:03:00,68.3,62.6,30.10,ENE,62,1.0,2.0,82,0.00,,,0.00,Wunderground v.1.15,2013-08-17 17:03:00,
2013-08-17 13:08:00,68.4,62.7,30.10,ENE,62,1.0,4.0,82,0.00,,,0.00,Wunderground v.1.15,2013-08-17 17:08:00,
2013-08-17 13:14:00,68.4,62.7,30.10,ENE,62,1.0,2.0,82,0.00,,,0.00,Wunderground v.1.15,2013-08-17 17:14:00,
2013-08-17 13:19:00,68.8,62.7,30.10,ENE,62,0.0,5.0,81,0.00,,,0.00,Wunderground v.1.15,2013-08-17 17:19:00,
2013-08-17 13:25:00,69.1,63.4,30.09,ENE,62,0.0,2.0,82,0.00,,,0.00,Wunderground v.1.15,2013-08-17 17:25:00,
2013-08-17 13:30:00,69.3,62.5,30.09,ENE,62,0.0,0.0,79,0.00,,,0.00,Wunderground v.1.15,2013-08-17 17:30:00,
2013-08-17 13:36:00,69.3,63.2,30.09,ENE,62,1.0,5.0,81,0.00,,,0.00,Wunderground v.1.15,2013-08-17 17:36:00,
2013-08-17 13:41:00,68.8,62.7,30.09,ENE,60,2.0,2.0,81,0.00,,,0.00,Wunderground v.1.15,2013-08-17 17:41:00,
2013-08-17 13:47:00,68.8,63.1,30.09,ENE,60,1.0,3.0,82,0.00,,,0.00,Wunderground v.1.15,2013-08-17 17:47:00,
2013-08-17 13:53:00,68.8,63.4,30.09,NE,53,2.0,4.0,83,0.00,,,0.00,Wunderground v.1.15,2013-08-17 17:53:00,
2013-08-17 13:58:00,68.8,63.1,30.09,NE,53,2.0,4.0,82,0.00,,,0.00,Wunderground v.1.15,2013-08-17 17:58:00,
2013-08-17 14:04:00,68.6,62.9,30.09,NE,53,2.0,4.0,82,0.00,,,0.00,Wunderground v.1.15,2013-08-17 18:04:00,
2013-08-17 14:10:00,68.6,63.2,30.09,ENE,77,2.0,4.0,83,0.00,,,0.00,Wunderground v.1.15,2013-08-17 18:10:00,
2013-08-17 14:15:00,68.4,62.7,30.09,ENE,63,3.0,4.0,82,0.00,,,0.00,Wunderground v.1.15,2013-08-17 18:15:00,
2013-08-17 14:21:00,68.6,63.2,30.08,ENE,63,3.0,3.0,83,0.00,,,0.00,Wunderground v.1.15,2013-08-17 18:21:00,
2013-08-17 14:26:00,68.9,63.2,30.08,ENE,63,2.0,3.0,82,0.00,,,0.00,Wunderground v.1.15,2013-08-17 18:26:00,
2013-08-17 14:31:00,68.9,63.9,30.08,ENE,63,1.0,1.0,84,0.00,,,0.00,Wunderground v.1.15,2013-08-17 18:31:00,
2013-08-17 14:37:00,68.8,63.4,30.08,ENE,63,1.0,4.0,83,0.00,,,0.00,Wunderground v.1.15,2013-08-17 18:37:00,
2013-08-17 14:43:00,68.8,63.4,30.08,ENE,63,1.0,3.0,83,0.00,,,0.00,Wunderground v.1.15,2013-08-17 18:43:00,
2013-08-17 14:48:00,68.8,63.8,30.08,ENE,63,0.0,3.0,84,0.00,,,0.00,Wunderground v.1.15,2013-08-17 18:48:00,
2013-08-17 14:54:00,68.8,63.4,30.09,ENE,60,0.0,5.0,83,0.00,,,0.00,Wunderground v.1.15,2013-08-17 18:54:00,
2013-08-17 15:00:00,68.6,63.6,30.09,ENE,60,1.0,3.0,84,0.00,,,0.00,Wunderground v.1.15,2013-08-17 19:00:00,
2013-08-17 15:06:00,68.4,63.7,30.09,ENE,60,1.0,4.0,85,0.00,,,0.00,Wunderground v.1.15,2013-08-17 19:06:00,
2013-08-17 15:11:00,68.3,63.9,30.09,ENE,60,1.0,1.0,86,0.00,,,0.00,Wunderground v.1.15,2013-08-17 19:11:00,
2013-08-17 15:16:00,68.3,63.9,30.09,ENE,60,0.0,1.0,86,0.00,,,0.00,Wunderground v.1.15,2013-08-17 19:16:00,
2013-08-17 15:22:00,68.3,63.9,30.09,ENE,60,0.0,0.0,86,0.00,,,0.00,Wunderground v.1.15,2013-08-17 19:22:00,
2013-08-17 15:28:00,68.3,63.6,30.09,ENE,60,0.0,2.0,85,0.00,,,0.00,Wunderground v.1.15,2013-08-17 19:28:00,
2013-08-17 15:33:00,68.4,64.4,30.09,ENE,60,0.0,0.0,87,0.00,,,0.00,Wunderground v.1.15,2013-08-17 19:33:00,
2013-08-17 15:38:00,68.4,64.0,30.08,ENE,60,0.0,0.0,86,0.00,,,0.00,Wunderground v.1.15,2013-08-17 19:38:00,
2013-08-17 15:44:00,68.3,63.9,30.08,ENE,60,0.0,0.0,86,0.00,,,0.00,Wunderground v.1.15,2013-08-17 19:44:00,
2013-08-17 15:49:00,68.3,63.9,30.08,ENE,60,0.0,1.0,86,0.00,,,0.00,Wunderground v.1.15,2013-08-17 19:49:00,
2013-08-17 15:55:00,68.6,63.9,30.07,ENE,60,1.0,4.0,85,0.00,,,0.00,Wunderground v.1.15,2013-08-17 19:55:00,
2013-08-17 16:01:00,68.6,63.6,30.07,ENE,60,1.0,1.0,84,0.00,,,0.00,Wunderground v.1.15,2013-08-17 20:01:00,
2013-08-17 16:06:00,68.9,63.9,30.07,ENE,60,1.0,1.0,84,0.00,,,0.00,Wunderground v.1.15,2013-08-17 20:06:00,
2013-08-17 16:11:00,68.9,63.5,30.07,ENE,60,0.0,0.0,83,0.00,,,0.00,Wunderground v.1.15,2013-08-17 20:11:00,
2013-08-17 16:17:00,69.1,63.7,30.07,ENE,60,0.0,3.0,83,0.00,,,0.00,Wunderground v.1.15,2013-08-17 20:17:00,
2013-08-17 16:23:00,68.9,63.5,30.07,ENE,60,1.0,3.0,83,0.00,,,0.00,Wunderground v.1.15,2013-08-17 20:23:00,
2013-08-17 16:29:00,68.8,63.8,30.07,ENE,60,1.0,4.0,84,0.00,,,0.00,Wunderground v.1.15,2013-08-17 20:29:00,
2013-08-17 16:35:00,68.8,64.1,30.07,ENE,60,0.0,1.0,85,0.00,,,0.00,Wunderground v.1.15,2013-08-17 20:35:00,
2013-08-17 16:40:00,68.6,64.2,30.07,ENE,60,0.0,0.0,86,0.00,,,0.00,Wunderground v.1.15,2013-08-17 20:40:00,
2013-08-17 16:45:00,68.6,64.2,30.07,ENE,60,0.0,0.0,86,0.00,,,0.00,Wunderground v.1.15,2013-08-17 20:45:00,
2013-08-17 16:51:00,68.4,64.0,30.07,ENE,60,0.0,0.0,86,0.00,,,0.00,Wunderground v.1.15,2013-08-17 20:51:00,
2013-08-17 16:56:00,68.4,64.4,30.07,ENE,60,0.0,0.0,87,0.00,,,0.00,Wunderground v.1.15,2013-08-17 20:56:00,
2013-08-17 17:02:00,68.3,64.3,30.07,ENE,60,0.0,0.0,87,0.00,,,0.00,Wunderground v.1.15,2013-08-17 21:02:00,
2013-08-17 17:07:00,68.4,64.4,30.07,ENE,60,0.0,0.0,87,0.00,,,0.00,Wunderground v.1.15,2013-08-17 21:07:00,
2013-08-17 17:13:00,68.4,64.0,30.07,ENE,60,0.0,0.0,86,0.00,,,0.00,Wunderground v.1.15,2013-08-17 21:13:00,
2013-08-17 17:18:00,68.4,64.0,30.07,ENE,60,0.0,0.0,86,0.00,,,0.00,Wunderground v.1.15,2013-08-17 21:18:00,
2013-08-17 17:24:00,68.4,64.0,30.07,ENE,60,0.0,0.0,86,0.00,,,0.00,Wunderground v.1.15,2013-08-17 21:24:00,
2013-08-17 17:29:00,68.4,64.4,30.07,ENE,60,0.0,0.0,87,0.00,,,0.00,Wunderground v.1.15,2013-08-17 21:29:00,
2013-08-17 17:35:00,68.3,64.6,30.07,ENE,60,0.0,0.0,88,0.00,,,0.00,Wunderground v.1.15,2013-08-17 21:35:00,
2013-08-17 17:40:00,68.1,64.7,30.07,ENE,60,0.0,0.0,89,0.00,,,0.00,Wunderground v.1.15,2013-08-17 21:40:00,
2013-08-17 17:46:00,68.1,65.1,30.07,ENE,60,0.0,0.0,90,0.00,,,0.00,Wunderground v.1.15,2013-08-17 21:46:00,
2013-08-17 17:51:00,67.9,64.9,30.07,ENE,60,0.0,0.0,90,0.00,,,0.00,Wunderground v.1.15,2013-08-17 21:51:00,
2013-08-17 17:57:00,67.8,64.8,30.07,ENE,60,0.0,0.0,90,0.00,,,0.00,Wunderground v.1.15,2013-08-17 21:57:00,
2013-08-17 18:02:00,67.6,65.2,30.07,ENE,60,0.0,0.0,92,0.00,,,0.00,Wunderground v.1.15,2013-08-17 22:02:00,
2013-08-17 18:08:00,67.6,65.2,30.07,ENE,60,0.0,0.0,92,0.00,,,0.01,Wunderground v.1.15,2013-08-17 22:08:00,
2013-08-17 18:13:00,67.4,65.0,30.07,ENE,60,0.0,0.0,92,0.00,,,0.01,Wunderground v.1.15,2013-08-17 22:13:00,
2013-08-17 18:19:00,67.1,65.0,30.07,ENE,60,0.0,0.0,93,0.04,,,0.02,Wunderground v.1.15,2013-08-17 22:19:00,
2013-08-17 18:25:00,66.9,65.1,30.07,ENE,60,0.0,0.0,94,0.04,,,0.02,Wunderground v.1.15,2013-08-17 22:25:00,
2013-08-17 18:31:00,66.4,64.9,30.07,ENE,60,1.0,3.0,95,0.04,,,0.02,Wunderground v.1.15,2013-08-17 22:31:00,
2013-08-17 18:36:00,66.3,65.1,30.07,ENE,58,2.0,5.0,96,0.00,,,0.02,Wunderground v.1.15,2013-08-17 22:36:00,
2013-08-17 18:42:00,66.0,64.8,30.07,ENE,60,3.0,4.0,96,0.00,,,0.03,Wunderground v.1.15,2013-08-17 22:42:00,
2013-08-17 18:47:00,65.6,64.7,30.07,ENE,65,4.0,6.0,97,0.00,,,0.03,Wunderground v.1.15,2013-08-17 22:47:00,
2013-08-17 18:53:00,65.3,64.4,30.07,ENE,61,5.0,6.0,97,0.00,,,0.03,Wunderground v.1.15,2013-08-17 22:53:00,
2013-08-17 18:58:00,65.2,64.6,30.07,ENE,60,3.0,6.0,98,0.04,,,0.04,Wunderground v.1.15,2013-08-17 22:58:00,
2013-08-17 19:04:00,65.2,64.6,30.07,ENE,60,1.0,3.0,98,0.04,,,0.04,Wunderground v.1.15,2013-08-17 23:04:00,
2013-08-17 19:09:00,65.2,64.6,30.08,ENE,60,1.0,3.0,98,0.04,,,0.04,Wunderground v.1.15,2013-08-17 23:09:00,
2013-08-17 19:14:00,65.2,64.9,30.08,ENE,60,0.0,1.0,99,0.00,,,0.04,Wunderground v.1.15,2013-08-17 23:14:00,
2013-08-17 19:20:00,65.2,64.9,30.08,ENE,60,0.0,0.0,99,0.00,,,0.04,Wunderground v.1.15,2013-08-17 23:20:00,
2013-08-17 19:26:00,65.2,64.9,30.08,ENE,60,0.0,0.0,99,0.00,,,0.05,Wunderground v.1.15,2013-08-17 23:26:00,
2013-08-17 19:31:00,65.2,64.9,30.08,ENE,60,0.0,0.0,99,0.00,,,0.05,Wunderground v.1.15,2013-08-17 23:31:00,
2013-08-17 19:37:00,65.2,64.9,30.08,ENE,60,0.0,0.0,99,0.00,,,0.05,Wunderground v.1.15,2013-08-17 23:37:00,
2013-08-17 19:42:00,65.0,64.7,30.08,ENE,60,1.0,3.0,99,0.00,,,0.05,Wunderground v.1.15,2013-08-17 23:42:00,
2013-08-17 19:48:00,65.0,64.7,30.08,ENE,60,2.0,4.0,99,0.00,,,0.05,Wunderground v.1.15,2013-08-17 23:48:00,
2013-08-17 19:53:00,64.8,64.5,30.08,ENE,60,1.0,1.0,99,0.00,,,0.05,Wunderground v.1.15,2013-08-17 23:53:00,
2013-08-17 19:59:00,64.8,64.5,30.08,ENE,60,0.0,1.0,99,0.00,,,0.05,Wunderground v.1.15,2013-08-17 23:59:00,
2013-08-17 20:04:00,64.8,64.8,30.08,ENE,60,0.0,0.0,100,0.00,,,0.05,Wunderground v.1.15,2013-08-18 00:04:00,
2013-08-17 20:10:00,64.8,64.8,30.08,ENE,60,0.0,0.0,100,0.00,,,0.05,Wunderground v.1.15,2013-08-18 00:10:00,
2013-08-17 20:15:00,64.7,64.7,30.08,East,84,0.0,0.0,100,0.00,,,0.05,Wunderground v.1.15,2013-08-18 00:15:00,
2013-08-17 20:21:00,64.7,64.7,30.09,SE,141,0.0,0.0,100,0.00,,,0.05,Wunderground v.1.15,2013-08-18 00:21:00,
2013-08-17 20:26:00,64.7,64.7,30.09,SE,141,0.0,0.0,100,0.00,,,0.05,Wunderground v.1.15,2013-08-18 00:26:00,
2013-08-17 20:32:00,64.7,64.7,30.09,SE,141,0.0,0.0,100,0.00,,,0.05,Wunderground v.1.15,2013-08-18 00:32:00,
2013-08-17 20:37:00,64.7,64.7,30.09,SE,141,0.0,0.0,100,0.00,,,0.05,Wunderground v.1.15,2013-08-18 00:37:00,
2013-08-17 20:43:00,64.7,64.7,30.09,SE,141,0.0,0.0,100,0.00,,,0.05,Wunderground v.1.15,2013-08-18 00:43:00,
2013-08-17 20:48:00,64.7,64.7,30.09,SE,141,0.0,0.0,100,0.00,,,0.05,Wunderground v.1.15,2013-08-18 00:48:00,
2013-08-17 20:54:00,64.7,64.7,30.09,SE,141,0.0,0.0,100,0.00,,,0.05,Wunderground v.1.15,2013-08-18 00:54:00,
2013-08-17 20:59:00,64.5,64.5,30.09,SE,141,0.0,0.0,100,0.00,,,0.05,Wunderground v.1.15,2013-08-18 00:59:00,
2013-08-17 21:05:00,64.5,64.5,30.09,SE,141,0.0,1.0,100,0.00,,,0.05,Wunderground v.1.15,2013-08-18 01:05:00,
2013-08-17 21:11:00,64.3,64.3,30.09,SE,141,0.0,0.0,100,0.00,,,0.05,Wunderground v.1.15,2013-08-18 01:11:00,
2013-08-17 21:17:00,64.3,64.3,30.09,SE,141,0.0,0.0,100,0.00,,,0.05,Wunderground v.1.15,2013-08-18 01:17:00,
2013-08-17 21:22:00,64.3,64.3,30.09,SE,141,0.0,0.0,100,0.00,,,0.05,Wunderground v.1.15,2013-08-18 01:22:00,
2013-08-17 21:27:00,64.2,64.2,30.09,SE,141,0.0,0.0,100,0.00,,,0.05,Wunderground v.1.15,2013-08-18 01:27:00,
2013-08-17 21:33:00,64.2,64.2,30.09,SE,141,0.0,0.0,100,0.00,,,0.05,Wunderground v.1.15,2013-08-18 01:33:00,
2013-08-17 21:38:00,64.3,64.3,30.09,SE,141,0.0,0.0,100,0.00,,,0.05,Wunderground v.1.15,2013-08-18 01:38:00,
2013-08-17 21:44:00,64.3,64.3,30.09,SE,141,0.0,0.0,100,0.00,,,0.05,Wunderground v.1.15,2013-08-18 01:44:00,
2013-08-17 21:49:00,64.3,64.3,30.09,SE,141,0.0,0.0,100,0.00,,,0.05,Wunderground v.1.15,2013-08-18 01:49:00,
2013-08-17 21:55:00,64.3,64.3,30.09,SE,141,0.0,1.0,100,0.00,,,0.05,Wunderground v.1.15,2013-08-18 01:55:00,
2013-08-17 22:00:00,64.3,64.3,30.09,SE,141,0.0,0.0,100,0.00,,,0.05,Wunderground v.1.15,2013-08-18 02:00:00,
2013-08-17 22:08:00,64.2,64.2,30.10,SE,141,0.0,0.0,100,0.00,,,0.05,Wunderground v.1.15,2013-08-18 02:08:00,
2013-08-17 22:14:00,64.2,64.2,30.10,SE,141,0.0,0.0,100,0.00,,,0.05,Wunderground v.1.15,2013-08-18 02:14:00,
2013-08-17 22:20:00,64.2,64.2,30.11,SE,141,0.0,0.0,100,0.00,,,0.05,Wunderground v.1.15,2013-08-18 02:20:00,
2013-08-17 22:26:00,64.2,64.2,30.11,SE,141,0.0,0.0,100,0.00,,,0.05,Wunderground v.1.15,2013-08-18 02:26:00,
2013-08-17 22:31:00,64.2,64.2,30.11,SE,140,0.0,0.0,100,0.00,,,0.05,Wunderground v.1.15,2013-08-18 02:31:00,
2013-08-17 22:36:00,64.2,64.2,30.11,ESE,108,1.0,4.0,100,0.00,,,0.06,Wunderground v.1.15,2013-08-18 02:36:00,
2013-08-17 22:42:00,64.2,64.2,30.11,ESE,108,2.0,2.0,100,0.00,,,0.06,Wunderground v.1.15,2013-08-18 02:42:00,
2013-08-17 22:48:00,64.2,64.2,30.11,East,93,1.0,3.0,100,0.00,,,0.06,Wunderground v.1.15,2013-08-18 02:48:00,
2013-08-17 22:53:00,64.2,64.2,30.11,East,93,1.0,4.0,100,0.00,,,0.06,Wunderground v.1.15,2013-08-18 02:53:00,
2013-08-17 22:58:00,64.2,64.2,30.11,East,93,2.0,4.0,100,0.00,,,0.06,Wunderground v.1.15,2013-08-18 02:58:00,
2013-08-17 23:04:00,64.2,64.2,30.11,East,92,2.0,3.0,100,0.00,,,0.06,Wunderground v.1.15,2013-08-18 03:04:00,
2013-08-17 23:09:00,64.2,64.2,30.11,East,92,2.0,4.0,100,0.00,,,0.06,Wunderground v.1.15,2013-08-18 03:09:00,
2013-08-17 23:15:00,64.0,64.0,30.11,ENE,77,2.0,5.0,100,0.00,,,0.06,Wunderground v.1.15,2013-08-18 03:15:00,
2013-08-17 23:20:00,64.2,64.2,30.12,ENE,77,1.0,1.0,100,0.00,,,0.07,Wunderground v.1.15,2013-08-18 03:20:00,
2013-08-17 23:26:00,64.0,64.0,30.12,ENE,77,0.0,0.0,100,0.00,,,0.07,Wunderground v.1.15,2013-08-18 03:26:00,
2013-08-17 23:32:00,64.0,64.0,30.12,ENE,77,0.0,0.0,100,0.00,,,0.07,Wunderground v.1.15,2013-08-18 03:32:00,
2013-08-17 23:37:00,64.0,64.0,30.11,ENE,77,0.0,0.0,100,0.04,,,0.08,Wunderground v.1.15,2013-08-18 03:37:00,
2013-08-17 23:43:00,64.0,64.0,30.11,ENE,77,0.0,0.0,100,0.04,,,0.08,Wunderground v.1.15,2013-08-18 03:43:00,
2013-08-17 23:48:00,64.0,64.0,30.11,ENE,77,0.0,0.0,100,0.04,,,0.08,Wunderground v.1.15,2013-08-18 03:48:00,
2013-08-17 23:54:00,64.0,64.0,30.11,ENE,77,0.0,0.0,100,0.00,,,0.08,Wunderground v.1.15,2013-08-18 03:54:00,
2013-08-17 23:59:00,64.0,64.0,30.11,ENE,77,0.0,0.0,100,0.00,,,0.08,Wunderground v.1.15,2013-08-18 03:59:00,